Regional Weather Roundup
Issued by NWS Cleveland, OH

Home | Current Version | Previous Version | Graphics & Text | Print | Product List | Glossary On
Versions: 1 2 3 4 5 6 7 8 9 10 11 12 13 14 15 16 17 18 19 20 21 22 23 24 25 26 27 28 29 30 31 32 33 34 35 36 37 38 39 40 41 42 43 44 45 46 47 48 49 50
000
ASUS41 KCLE 271312
RWRCLE
OHIO REGIONAL WEATHER ROUNDUP
NATIONAL WEATHER SERVICE WILMINGTON, OH
900 AM EDT TUE JUN 27 2017

NOTE: "FAIR" INDICATES FEW OR NO CLOUDS BELOW 12,000 FEET WITH NO
SIGNIFICANT WEATHER AND/OR OBSTRUCTIONS TO VISIBILITY.

OHZ001>008-015>018-024>027-034-035-043-044-271400-
   NORTHWEST OHIO

CITY           SKY/WX    TMP DP  RH WIND       PRES   REMARKS
DEFIANCE       FAIR      57  50  77 NW6       30.13R
FINDLAY        FAIR      60  50  69 NW8       30.11R
TOLEDO EXPRESS FAIR      57  49  74 NW9       30.10R
TOLEDO EXEC    FAIR      59  50  72 NW9       30.11R
LIMA           FAIR      58  51  78 NW7       30.13R
$$

OHZ009>014-019>023-028>033-038-089-271400-
   NORTHEAST OHIO

CITY           SKY/WX    TMP DP  RH WIND       PRES   REMARKS
CLE-HOPKINS    PTSUNNY   56  51  84 SW9       30.08R
CLE-LAKEFRONT  LGT RAIN  57  50  77 SW10      30.04R
CUY CO. ARPT   CLOUDY    59  52  77 W7        30.04R
LORAIN-ELYRIA  FAIR      57  46  66 W10       30.07R
ASHTABULA      FAIR      58  52  80 W9        30.04R
AKRON-CANTON   FAIR      57  48  72 W16       30.08R
WOOSTER        FAIR      57  49  74 W15       30.09R
MANSFIELD      PTSUNNY   57  49  74 W9G16     30.10R
YOUNGSTOWN     FAIR      57  50  77 W8        30.05R
$$

OHZ042-051>053-060>062-070>072-077>081-271400-
  SOUTHWEST OHIO

CITY           SKY/WX    TMP DP  RH WIND       PRES   REMARKS
CINC-COVINGTON FAIR      62  52  69 NW5       30.15R
CINC-LUNKEN    FAIR      64  54  69 N3        30.16R
HAMILTON       FAIR      61  55  81 VRB5      30.16R
DAYTON         FAIR      60  50  69 NW9       30.15R
WRIGHT-PAT AFB FAIR      60  53  76 CALM      30.14R
DAYTON GENERAL FAIR      60  51  72 VRB3      30.14R
WILMINGTON     FAIR      60  51  72 NW6       30.14R
$$

OHZ036-037-039>041-045>050-054>059-063>069-073>076-082>088-271400-
  CENTRAL AND SOUTHEAST OHIO

CITY           SKY/WX    TMP DP  RH WIND       PRES   REMARKS
COLUMBUS       FAIR      60  51  72 NW13      30.12R
OSU AIRPORT    FAIR      59  52  77 NW8       30.13R
BOLTON FIELD   SUNNY     59  52  77 NW10      30.14R
RICKENBACK AFB FAIR      59  52  78 NW6       30.13R
NEWARK         FAIR      60  50  69 NW9       30.12R
MARION         FAIR      59  49  69 NW10      30.12R
LANCASTER      FAIR      60  50  69 NW7       30.13R
ZANESVILLE     FAIR      60  50  69 NW10      30.12R
NEW PHILLY     FAIR      60  49  66 VRB6      30.10R
$$



USA.gov is the U.S. government's official web portal to all federal, state and local government web resources and services.